Tracking 25650 objects as of 16-May-2022
HD Live streaming from Space Station
objects crossing your sky now

LEMUR 2 CARLSANTAMARI

Track LEMUR 2 CARLSANTAMARI now!
10-day predictions
LEMUR 2 CARLSANTAMARI is classified as:


NORAD ID: 48959
Int'l Code: 2021-059CJ
Perigee: 505.4 km
Apogee: 527.1 km
Inclination: 97.5 °
Period: 94.8 minutes
Semi major axis: 6887 km
RCS: Unknown
Launch date: June 30, 2021
Source: United States (US)
Launch site: AIR FORCE EASTERN TEST RANGE (AFETR)
aabbcc
Your satellite tracking list
Your tracking list is empty




NASA's NSSDC Master Catalog

Two Line Element Set (TLE):
1 48959U 21059CJ  22135.91172935  .00025575  00000-0  12212-2 0  9996
2 48959  97.5451 266.6867 0015759 212.2706 147.7566 15.18920064 49089
Source of the keplerian elements: AFSPC